Location: Unspecified
(43.8044°N, 11.0278°E)
Time: 21:27:53
(UTC+02:00)

Cosmos 2058 - Visible Passes

Search period start: 27 May 2018 00:00
Search period end: 06 June 2018 00:00
Orbit: 563 x 584 km, 82.5° (Epoch: 27 May)

Date Brightness Start Highest point End Pass type
(mag) Time Alt. Az. Time Alt. Az. Time Alt. Az.
27 May 4.4 03:13:13 18° SE 03:15:39 32° E 03:19:25 10° NNE visible
27 May 4.5 04:49:27 10° WSW 04:52:38 22° WNW 04:55:56 10° NNW visible
28 May 3.9 03:16:35 23° SSE 03:18:46 42° E 03:22:46 10° NNE visible
28 May 4.8 04:53:08 10° WSW 04:55:54 17° WNW 04:58:42 10° NNW visible
29 May 3.4 03:19:55 28° SSE 03:21:54 56° E 03:26:02 10° NNE visible
29 May 5.1 04:57:09 10° W 04:59:13 13° WNW 05:01:16 10° NW visible
30 May 3.0 03:23:15 33° S 03:25:02 76° E 03:29:15 10° NNE visible
30 May 5.3 05:02:05 10° WNW 05:02:31 10° WNW 05:02:57 10° WNW visible
31 May 2.8 03:26:33 36° SSW 03:28:12 81° W 03:32:26 10° N visible
01 Jun 5.5 01:53:37 10° ESE 01:55:02 12° E 01:56:28 10° ENE visible
01 Jun 3.0 03:29:50 36° SW 03:31:22 61° W 03:35:33 10° N visible
02 Jun 5.2 01:56:54 14° ESE 01:58:04 15° E 02:00:30 10° NE visible
02 Jun 3.4 03:33:07 32° SW 03:34:35 45° WNW 03:38:38 10° N visible
03 Jun 4.9 02:00:09 18° ESE 02:01:07 20° E 02:04:10 10° NE visible
03 Jun 3.8 03:36:22 27° WSW 03:37:47 34° WNW 03:41:40 10° N visible
04 Jun 4.5 02:03:24 24° ESE 02:04:12 25° E 02:07:40 10° NNE visible
04 Jun 4.2 03:39:37 22° WSW 03:41:01 27° WNW 03:44:37 10° NNW visible
05 Jun 4.1 02:06:37 31° ESE 02:07:17 33° E 02:11:04 10° NNE visible
05 Jun 4.6 03:42:50 18° W 03:44:17 21° WNW 03:47:30 10° NNW visible
